{"data":{"norad_id":68173,"epoch":"2026-05-25T01:57:29.683584Z","epoch_age_seconds":71470,"freshness":"FRESH","line1":"1 68173U 26050G   26145.08159356  .00023264  00000+0  69746-3 0  9994","line2":"2 68173  53.1606 271.5910 0001324  92.9155 267.1999 15.34403285 12386","mean_motion":15.34403285,"eccentricity":0.0001324,"inclination_deg":53.1606,"raan_deg":271.591,"arg_perigee_deg":92.9155,"mean_anomaly_deg":267.1999,"bstar":0.00069746,"rev_number":1238,"period_min":93.847557162914,"perigee_km":461.78775055715,"apogee_km":463.59920246733,"semimajor_km":6840.8304765122,"source":"CELESTRAK","updated_at":"2026-05-25T13:38:21.853466Z"}}